H1 CPF 2 NER 2023 11 21 9 325 01 glonass143 H2 2007501 9143 46805 2023 11 21 0 0 0 2023 11 24 23 45 0 900 1 1 0 0 0 1 H9 10 0 60269 0.00000 0 -21868415.592 -274427.520 13149617.255 10 0 60269 900.00000 0 -20142068.419 -704662.399 15653051.476 10 0 60269 1800.00000 0 -18182902.687 -1366464.050 17852829.557 10 0 60269 2700.00000 0 -16052086.292 -2276408.870 19706290.244 10 0 60269 3600.00000 0 -13814758.061 -3439019.617 21177482.817 10 0 60269 4500.00000 0 -11537433.209 -4846344.074 22237860.233 10 0 60269 5400.00000 0 -9285368.538 -6478065.037 22866830.043 10 0 60269 6300.00000 0 -7119996.268 -8302138.233 23052152.926 10 0 60269 7200.00000 0 -5096532.473 -10275932.856 22790181.395 10 0 60269 8100.00000 0 -3261858.707 -12347828.567 22085934.127 10 0 60269 9000.00000 0 -1652764.077 -14459203.842 20953004.229 10 0 60269 9900.00000 0 -294620.210 -16546734.096 19413302.709 10 0 60269 10800.00000 0 799456.399 -18544904.961 17496641.418 10 0 60269 11700.00000 0 1628920.297 -20388636.784 15240162.644 10 0 60269 12600.00000 0 2205578.555 -22015911.328 12687625.552 10 0 60269 13500.00000 0 2552847.472 -23370291.144 9888562.464 10 0 60269 14400.00000 0 2704516.203 -24403226.049 6897320.700 10 0 60269 15300.00000 0 2703069.847 -25076049.698 3772008.214 10 0 60269 16200.00000 0 2597643.299 -25361581.856 573363.410 10 0 60269 17100.00000 0 2441693.004 -25245268.379 -2636428.691 10 0 60269 18000.00000 0 2290485.891 -24725810.234 -5794950.384 10 0 60269 18900.00000 0 2198512.723 -23815254.480 -8840771.028 10 0 60269 19800.00000 0 2216936.457 -22538542.831 -11714648.097 10 0 60269 20700.00000 0 2391184.746 -20932536.513 -14360685.323 10 0 60269 21600.00000 0 2758789.624 -19044558.226 -16727424.755 10 0 60269 22500.00000 0 3347566.826 -16930512.467 -18768850.962 10 0 60269 23400.00000 0 4174212.686 -14652663.180 -20445287.568 10 0 60269 24300.00000 0 5243378.762 -12277161.985 -21724168.657 10 0 60269 25200.00000 0 6547264.045 -9871430.459 -22580670.248 10 0 60269 26100.00000 0 8065742.664 -7501505.852 -22998189.892 10 0 60269 27000.00000 0 9767022.439 -5229460.780 -22968665.549 10 0 60269 27900.00000 0 11608807.272 -3111004.030 -22492727.983 10 0 60269 28800.00000 0 13539915.249 -1193361.819 -21579684.157 10 0 60269 29700.00000 0 15502285.208 486473.181 -20247332.256 10 0 60269 30600.00000 0 17433288.268 1903053.220 -18521612.135 10 0 60269 31500.00000 0 19268247.977 3043293.916 -16436098.091 10 0 60269 32400.00000 0 20943063.963 3906767.107 -14031343.813 10 0 60269 33300.00000 0 22396829.569 4505457.473 -11354092.202 10 0 60269 34200.00000 0 23574334.037 4862994.741 -8456365.402 10 0 60269 35100.00000 0 24428344.620 5013395.274 -5394452.751 10 0 60269 36000.00000 0 24921573.122 4999367.419 -2227816.352 10 0 60269 36900.00000 0 25028244.526 4870253.259 982064.256 10 0 60269 37800.00000 0 24735202.091 4679694.649 4172885.732 10 0 60269 38700.00000 0 24042502.703 4483122.912 7282729.502 10 0 60269 39600.00000 0 22963477.645 4335178.840 10251261.616 10 0 60269 40500.00000 0 21524256.373 4287172.465 13020900.569 10 0 60269 41400.00000 0 19762773.221 4384690.141 15537930.571 10 0 60269 42300.00000 0 17727298.587 4665450.185 17753538.874 10 0 60269 43200.00000 0 15474555.719 5157497.711 19624757.522 10 0 60269 44100.00000 0 13067501.329 5877814.991 21115291.832 10 0 60269 45000.00000 0 10572862.007 6831406.223 22196220.149 10 0 60269 45900.00000 0 8058528.269 8010895.828 22846551.957 10 0 60269 46800.00000 0 5590913.772 9396657.979 23053634.035 10 0 60269 47700.00000 0 3232388.524 10957473.060 22813397.087 10 0 60269 48600.00000 0 1038891.763 12651684.836 22130438.172 10 0 60269 49500.00000 0 -942177.295 14428811.340 21017937.078 10 0 60269 50400.00000 0 -2673703.982 16231543.475 19497407.799 10 0 60269 51300.00000 0 -4130166.240 17998049.064 17598289.200 10 0 60269 52200.00000 0 -5298452.369 19664487.016 15357381.917 10 0 60269 53100.00000 0 -6178154.949 21167627.164 12818141.530 10 0 60269 54000.00000 0 -6781329.182 22447466.381 10029840.859 10 0 60269 54900.00000 0 -7131726.333 23449731.366 7046616.967 10 0 60269 55800.00000 0 -7263535.012 24128162.649 3926420.990 10 0 60269 56700.00000 0 -7219683.931 24446483.273 729891.094 10 0 60269 57600.00000 0 -7049778.438 24379968.536 -2480829.353 10 0 60269 58500.00000 0 -6807758.811 23916549.816 -5643304.870 10 0 60269 59400.00000 0 -6549380.292 23057405.143 -8696027.954 10 0 60269 60300.00000 0 -6329622.489 21817010.820 -11579621.648 10 0 60269 61200.00000 0 -6200138.872 20222651.283 -14238000.356 10 0 60269 62100.00000 0 -6206855.326 18313407.316 -16619465.642 10 0 60269 63000.00000 0 -6387820.334 16138664.802 -18677715.202 10 0 60269 63900.00000 0 -6771398.558 13756206.387 -20372745.053 10 0 60269 64800.00000 0 -7374884.871 11229965.920 -21671627.391 10 0 60269 65700.00000 0 -8203597.976 8627539.452 -22549149.149 10 0 60269 66600.00000 0 -9250492.351 6017556.669 -22988299.199 10 0 60269 67500.00000 0 -10496305.349 3467022.124 -22980595.166 10 0 60269 68400.00000 0 -11910233.717 1038736.595 -22526243.979 10 0 60269 69300.00000 0 -13451111.484 -1211094.630 -21634133.462 10 0 60269 70200.00000 0 -15069040.186 -3234967.854 -20321655.463 10 0 60269 71100.00000 0 -16707403.383 -4995814.859 -18614364.164 10 0 60269 72000.00000 0 -18305181.265 -6468293.575 -16545476.313 10 0 60269 72900.00000 0 -19799468.565 -7639583.176 -14155223.115 10 0 60269 73800.00000 0 -21128090.361 -8509651.955 -11490066.302 10 0 60269 74700.00000 0 -22232206.145 -9090988.398 -8601793.621 10 0 60269 75600.00000 0 -23058792.940 -9407808.355 -5546511.322 10 0 60269 76500.00000 0 -23562903.264 -9494773.184 -2383553.263 10 0 60269 77400.00000 0 -23709603.069 -9395274.170 825671.979 10 0 60269 78300.00000 0 -23475508.254 -9159356.762 4018873.405 10 0 60269 79200.00000 0 -22849855.182 -8841373.157 7134085.985 10 0 60269 80100.00000 0 -21835060.167 -8497463.082 10110871.465 10 0 60269 81000.00000 0 -20446744.390 -8182969.649 12891488.253 10 0 60269 81900.00000 0 -18713222.972 -7949899.721 15422007.803 10 0 60269 82800.00000 0 -16674479.374 -7844536.111 17653356.067 10 0 60269 83700.00000 0 -14380667.560 -7905302.375 19542260.278 10 0 60269 84600.00000 0 -11890203.902 -8160970.235 21052083.280 10 0 60269 85500.00000 0 -9267527.644 -8629285.192 22153529.856 10 0 60270 0.00000 0 -6580622.544 -9316068.329 22825211.960 10 0 60270 900.00000 0 -3898400.268 -10214832.925 23054062.694 10 0 60270 1800.00000 0 -1288056.798 -11306931.699 22835590.535 10 0 60270 2700.00000 0 1187494.260 -12562230.693 22173970.175 10 0 60270 3600.00000 0 3472002.402 -13940281.799 21081966.974 10 0 60270 4500.00000 0 5517978.473 -15391946.335 19580696.483 10 0 60270 5400.00000 0 7288423.857 -16861402.775 17699222.860 10 0 60270 6300.00000 0 8758119.372 -18288455.580 15474003.100 10 0 60270 7200.00000 0 9914420.738 -19611049.082 12948186.949 10 0 60270 8100.00000 0 10757527.941 -20767881.462 10170785.241 10 0 60270 9000.00000 0 11300217.726 -21701009.135 7195722.087 10 0 60270 9900.00000 0 11567050.951 -22358331.813 4080788.960 10 0 60270 10800.00000 0 11593088.706 -22695853.112 886520.838 10 0 60270 11700.00000 0 11422171.947 -22679620.671 -2324983.528 10 0 60270 12600.00000 0 11104837.991 -22287263.040 -5491273.802 10 0 60270 13500.00000 0 10695962.790 -21509057.499 -8550768.435 10 0 60270 14400.00000 0 10252229.591 -20348482.759 -11443958.705 10 0 60270 15300.00000 0 9829532.070 -18822232.336 -14114572.149 10 0 60270 16200.00000 0 9480422.752 -16959687.221 -16510672.071 10 0 60270 17100.00000 0 9251715.505 -14801869.374 -18585671.218 10 0 60270 18000.00000 0 9182344.236 -12399919.483 -20299239.576 10 0 60270 18900.00000 0 9301568.830 -9813162.419 -21618088.615 10 0 60270 19800.00000 0 9627604.525 -7106840.978 -22516616.909 10 0 60270 20700.00000 0 10166732.829 -4349612.307 -22977404.892 10 0 60270 21600.00000 0 10912931.656 -1610911.065 -22991549.640 10 0 60270 22500.00000 0 11848040.401 1041711.308 -22558833.582 10 0 60270 23400.00000 0 12942453.124 3545161.034 -21687724.346 10 0 60270 24300.00000 0 14156310.817 5843183.814 -20395206.030 10 0 60270 25200.00000 0 15441142.764 7888455.884 -18706445.417 10 0 60270 26100.00000 0 16741888.132 9644298.358 -16654299.702 10 0 60270 27000.00000 0 17999212.939 11085944.736 -14278675.336 10 0 60270 27900.00000 0 19152025.127 12201310.146 -11625750.370 10 0 60270 28800.00000 0 20140082.024 12991231.683 -8747075.424 10 0 60270 29700.00000 0 20906580.539 13469171.373 -5698570.743 10 0 60270 30600.00000 0 21400621.101 13660395.792 -2539438.903 10 0 60270 31500.00000 0 21579441.577 13600668.267 668985.553 10 0 60270 32400.00000 0 21410327.046 13334510.031 3864426.993 10 0 60270 33300.00000 0 20872114.949 12913104.679 6984876.811 10 0 60270 34200.00000 0 19956232.113 12391935.193 9969795.101 10 0 60270 35100.00000 0 18667219.817 11828253.817 12761282.546 10 0 60270 36000.00000 0 17022724.524 11278491.896 15305199.897 10 0 60270 36900.00000 0 15052954.195 10795719.066 17552213.520 10 0 60270 37800.00000 0 12799622.387 10427258.888 19458747.218 10 0 60270 38700.00000 0 10314423.456 10212561.216 20987822.425 10 0 60270 39600.00000 0 7657101.637 10181420.738 22109771.093 10 0 60270 40500.00000 0 4893193.334 10352616.490 22802808.124 10 0 60270 41400.00000 0 2091535.390 10733029.611 23053452.739 10 0 60270 42300.00000 0 -678358.365 11317276.635 22856791.012 10 0 60270 43200.00000 0 -3348944.564 12087874.225 22216574.514 10 0 60270 44100.00000 0 -5857213.103 13015929.165 21145153.008 10 0 60270 45000.00000 0 -8147059.879 14062325.524 19663242.007 10 0 60270 45900.00000 0 -10171371.869 15179360.179 17799528.977 10 0 60270 46800.00000 0 -11893738.582 16312758.959 15590124.952 10 0 60270 47700.00000 0 -13289719.179 17403989.512 13077871.274 10 0 60270 48600.00000 0 -14347612.880 18392774.228 10311514.045 10 0 60270 49500.00000 0 -15068700.884 19219697.721 7344761.599 10 0 60270 50400.00000 0 -15466950.015 19828798.916 4235242.893 10 0 60270 51300.00000 0 -15568191.038 20170038.047 1043386.910 10 0 60270 52200.00000 0 -15408806.721 20201533.705 -2168754.974 10 0 60270 53100.00000 0 -15033985.589 19891474.587 -5338720.223 10 0 60270 54000.00000 0 -14495615.850 19219624.067 -8404855.778 10 0 60270 54900.00000 0 -13849909.291 18178352.975 -11307523.517 10 0 60270 55800.00000 0 -13154856.479 16773155.861 -13990266.272 10 0 60270 56700.00000 0 -12467621.758 15022627.968 -16400910.989 10 0 60270 57600.00000 0 -11841988.910 12957902.935 -18492587.078 10 0 60270 58500.00000 0 -11325966.097 10621574.124 -20224639.793 10 0 60270 59400.00000 0 -10959651.703 8066144.141 -21563420.855 10 0 60270 60300.00000 0 -10773451.386 5352066.888 -22482941.111 10 0 60270 61200.00000 0 -10786721.676 2545463.529 -22965372.865 10 0 60270 62100.00000 0 -11006897.168 -284392.855 -23001392.594 10 0 60270 63000.00000 0 -11429137.950 -3067719.637 -22590357.820 10 0 60270 63900.00000 0 -12036511.853 -5736884.607 -21740315.182 10 0 60270 64800.00000 0 -12800703.653 -8228973.592 -20467839.853 10 0 60270 65700.00000 0 -13683221.153 -10488159.777 -18797709.670 10 0 60270 66600.00000 0 -14637047.222 -12467777.061 -16762420.391 10 0 60270 67500.00000 0 -15608668.139 -14132012.254 -14401551.543 10 0 60270 68400.00000 0 -16540392.736 -15457146.813 -11760995.113 10 0 60270 69300.00000 0 -17372864.551 -16432297.594 -8892062.061 10 0 60270 70200.00000 0 -18047661.084 -17059627.114 -5850484.028 10 0 60270 71100.00000 0 -18509870.457 -17354015.934 -2695329.668 10 0 60270 72000.00000 0 -18710536.748 -17342212.355 512143.150 10 0 60270 72900.00000 0 -18608870.716 -17061496.482 3709676.788 10 0 60270 73800.00000 0 -18174132.554 -16557916.032 6835221.665 10 0 60270 74700.00000 0 -17387107.097 -15884169.163 9828138.778 10 0 60270 75600.00000 0 -16241109.060 -15097224.222 12630373.572 10 0 60270 76500.00000 0 -14742475.603 -14255777.168 15187578.435 10 0 60270 77400.00000 0 -12910525.022 -13417654.016 17450162.300 10 0 60270 78300.00000 0 -10776982.549 -12637267.591 19374247.428 10 0 60270 79200.00000 0 -8384896.446 -11963235.458 20922515.395 10 0 60270 80100.00000 0 -5787088.576 -11436258.836 22064926.503 10 0 60270 81000.00000 0 -3044202.903 -11087351.310 22779299.328 10 0 60270 81900.00000 0 -222431.767 -10936491.413 23051739.704 10 0 60270 82800.00000 0 2608986.856 -10991755.522 22876911.170 10 0 60270 83700.00000 0 5380398.566 -11248967.470 22258141.765 10 0 60270 84600.00000 0 8024380.383 -11691879.877 21207364.895 10 0 60270 85500.00000 0 10478298.429 -12292880.030 19744894.938 10 0 60271 0.00000 0 12686670.039 -13014191.250 17899041.447 10 0 60271 900.00000 0 14603233.995 -13809520.347 15705567.439 10 0 60271 1800.00000 0 16192640.380 -14626081.530 13207003.946 10 0 60271 2700.00000 0 17431693.913 -15406913.402 10451829.958 10 0 60271 3600.00000 0 18310096.104 -16093390.704 7493535.320 10 0 60271 4500.00000 0 18830656.641 -16627825.239 4389583.479 10 0 60271 5400.00000 0 19008965.188 -16956045.755 1200294.196 10 0 60271 6300.00000 0 18872537.748 -17029847.156 -2012331.872 10 0 60271 7200.00000 0 18459474.004 -16809204.601 -5185823.362 10 0 60271 8100.00000 0 17816682.820 -16264157.815 -8258458.984 10 0 60271 9000.00000 0 16997751.506 -15376284.756 -11170474.314 10 0 60271 9900.00000 0 16060549.599 -14139701.154 -13865230.309 10 0 60271 10800.00000 0 15064669.143 -12561542.555 -16290320.072 10 0 60271 11700.00000 0 14068810.294 -10661907.431 -18398591.816 10 0 60271 12600.00000 0 13128223.207 -8473262.760 -20149067.798 10 0 60271 13500.00000 0 12292314.552 -6039336.158 -21507741.270 10 0 60271 14400.00000 0 11602519.735 -3413540.191 -22448236.158 10 0 60271 15300.00000 0 11090530.461 -656994.140 -22952316.940 10 0 60271 16200.00000 0 10776951.989 2163774.843 -23010239.288 10 0 60271 17100.00000 0 10670446.200 4979355.943 -22620935.133 10 0 60271 18000.00000 0 10767395.972 7720099.745 -21792028.988 10 0 60271 18900.00000 0 11052104.423 10318774.738 -20539685.554 10 0 60271 19800.00000 0 11497520.024 12713125.499 -18888291.810 10 0 60271 20700.00000 0 12066456.541 14848226.881 -16869979.846 10 0 60271 21600.00000 0 12713255.934 16678537.126 -14523999.748 10 0 60271 22500.00000 0 13385823.753 18169565.369 -11895954.672 10 0 60271 23400.00000 0 14027950.878 19299085.017 -9036912.944 10 0 60271 24300.00000 0 14581823.376 20057843.563 -6002414.456 10 0 60271 25200.00000 0 14990614.313 20449740.353 -2851390.703 10 0 60271 26100.00000 0 15201047.861 20491466.138 354980.365 10 0 60271 27000.00000 0 15165827.240 20211620.804 3554462.272 10 0 60271 27900.00000 0 14845823.759 19649347.463 6684967.440 10 0 60271 28800.00000 0 14211934.309 18852541.357 9685760.498 10 0 60271 29700.00000 0 13246528.660 17875709.693 12498634.050 10 0 60271 30600.00000 0 11944425.174 16777572.982 15069034.178 10 0 60271 31500.00000 0 10313353.300 15618509.057 17347114.072 10 0 60271 32400.00000 0 8373882.721 14457947.257 19288695.790 10 0 60271 33300.00000 0 6158821.152 13351822.025 20856122.045 10 0 60271 34200.00000 0 3712104.880 12350192.475 22018982.150 10 0 60271 35100.00000 0 1087227.065 11495127.297 22754698.684 10 0 60271 36000.00000 0 -1654732.151 10818943.144 23048964.061 10 0 60271 36900.00000 0 -4447393.219 10342869.933 22896018.893 10 0 60271 37800.00000 0 -7221588.879 10076198.592 22298766.891 10 0 60271 38700.00000 0 -9907997.081 10015946.863 21268723.872 10 0 60271 39600.00000 0 -12439787.018 10147057.178 19825801.444 10 0 60271 40500.00000 0 -14755169.422 10443118.517 17997928.824 10 0 60271 41400.00000 0 -16799745.930 10867582.263 15820519.257 10 0 60271 42300.00000 0 -18528560.243 11375421.291 13335790.463 10 0 60271 43200.00000 0 -19907765.930 11915162.772 10591951.407 10 0 60271 44100.00000 0 -20915841.390 12431209.193 7642270.433 10 0 60271 45000.00000 0 -21544301.197 12866349.592 4544042.449 10 0 60271 45900.00000 0 -21797874.048 13164354.616 1357475.017 10 0 60271 46800.00000 0 -21694139.958 13272545.098 -1855484.801 10 0 60271 47700.00000 0 -21262642.189 13144224.624 -5032359.569 10 0 60271 48600.00000 0 -20543511.653 12740872.118 -8111362.362 10 0 60271 49500.00000 0 -19585662.323 12034000.481 -11032604.885 10 0 60271 50400.00000 0 -18444634.376 11006601.393 -13739268.437 10 0 60271 51300.00000 0 -17180176.733 9654114.035 -16178714.228 10 0 60271 52200.00000 0 -15853671.616 7984875.555 -18303510.928 10 0 60271 53100.00000 0 -14525510.262 6020033.246 -20072359.077 10 0 60271 54000.00000 0 -13252530.737 3792921.031 -21450894.357 10 0 60271 54900.00000 0 -12085625.870 1347925.505 -22412354.262 10 0 60271 55800.00000 0 -11067621.857 -1261111.821 -22938095.516 10 0 60271 56700.00000 0 -10231516.379 -3972890.040 -23017952.659 10 0 60271 57600.00000 0 -9599149.683 -6720959.573 -22650431.307 10 0 60271 58500.00000 0 -9180363.726 -9436252.419 -21842732.743 10 0 60271 59400.00000 0 -8972683.833 -12049727.205 -20610609.746 10 0 60271 60300.00000 0 -8961535.311 -14495019.631 -18978056.664 10 0 60271 61200.00000 0 -9120985.005 -16710988.593 -16976839.875 10 0 60271 62100.00000 0 -9414975.719 -18644052.732 -14645877.776 10 0 60271 63000.00000 0 -9799000.712 -20250220.816 -12030482.302 10 0 60271 63900.00000 0 -10222147.036 -21496732.075 -9181476.689 10 0 60271 64800.00000 0 -10629420.909 -22363238.940 -6154206.620 10 0 60271 65700.00000 0 -10964256.463 -22842483.702 -3007464.009 10 0 60271 66600.00000 0 -11171101.509 -22940441.788 197655.482 10 0 60271 67500.00000 0 -11197970.685 -22675926.720 3398938.836 10 0 60271 68400.00000 0 -10998857.814 -22079674.331 6534262.735 10 0 60271 69300.00000 0 -10535905.249 -21192945.631 9542797.644 10 0 60271 70200.00000 0 -9781238.313 -20065707.790 12366185.472 10 0 60271 71100.00000 0 -8718387.032 -18754470.194 14949668.059 10 0 60271 72000.00000 0 -7343234.786 -17319866.816 17243144.801 10 0 60271 72900.00000 0 -5664453.273 -15824086.436 19202139.316 10 0 60271 73800.00000 0 -3703404.638 -14328258.290 20788656.996 10 0 60271 74700.00000 0 -1493513.775 -12889902.376 21971917.436 10 0 60271 75600.00000 0 920864.264 -11560550.575 22728948.184 10 0 60271 76500.00000 0 3486035.972 -10383637.520 23045028.878 10 0 60271 77400.00000 0 6140955.429 -9392748.774 22913977.525 10 0 60271 78300.00000 0 8819523.628 -8610298.961 22338273.500 10 0 60271 79200.00000 0 11453107.054 -8046694.658 21329014.723 10 0 60271 80100.00000 0 13973172.138 -7700016.756 19905709.395 10 0 60271 81000.00000 0 16313927.274 -7556235.387 18095905.631 10 0 60271 81900.00000 0 18414863.355 -7589948.398 15934665.288 10 0 60271 82800.00000 0 20223087.607 -7765612.360 13463891.276 10 0 60271 83700.00000 0 21695353.715 -8039214.423 10731520.510 10 0 60271 84600.00000 0 22799703.530 -8360314.571 7790597.422 10 0 60271 85500.00000 0 23516651.551 -8674371.953 4698245.578 10 0 60272 0.00000 0 23839862.379 -8925256.691 1514557.514 10 0 60272 900.00000 0 23776292.678 -9057840.447 -1698577.250 10 0 60272 1800.00000 0 23345791.233 -9020555.022 -4878678.411 10 0 60272 2700.00000 0 22580174.653 -8767810.096 -7963896.908 10 0 60272 3600.00000 0 21521817.324 -8262166.243 -10894223.933 10 0 60272 4500.00000 0 20221815.718 -7476170.152 -13612664.255 10 0 60272 5400.00000 0 18737804.835 -6393773.161 -16066350.012 10 0 60272 6300.00000 0 17131519.291 -5011271.914 -18207572.773 10 0 60272 7200.00000 0 15466202.240 -3337730.280 -19994713.419 10 0 60272 8100.00000 0 13803971.476 -1394863.669 -21393051.692 10 0 60272 9000.00000 0 12203253.583 783610.457 -22375439.841 10 0 60272 9900.00000 0 10716393.825 3153129.535 -22922827.569 10 0 60272 10800.00000 0 9387541.715 5659902.746 -23024628.546 10 0 60272 11700.00000 0 8250900.326 8242920.961 -22678921.844 10 0 60272 12600.00000 0 7329411.911 10836276.596 -21892484.820 10 0 60272 13500.00000 0 6633933.918 13371697.285 -20680657.169 10 0 60272 14400.00000 0 6162938.771 15781188.457 -19067039.014 10 0 60272 15300.00000 0 5902748.856 17999675.228 -17083029.010 10 0 60272 16200.00000 0 5828295.583 19967534.141 -14767211.492 10 0 60272 17100.00000 0 5904369.469 21632909.773 -12164604.457 10 0 60272 18000.00000 0 6087307.571 22953720.118 -9325783.046 10 0 60272 18900.00000 0 6327046.179 23899267.644 -6305895.495 10 0 60272 19800.00000 0 6569451.391 24451389.397 -3163590.743 10 0 60272 20700.00000 0 6758828.465 24605098.725 40121.297 10 0 60272 21600.00000 0 6840503.371 24368692.570 3243054.497 10 0 60272 22500.00000 0 6763367.008 23763320.615 6383053.092 10 0 60272 23400.00000 0 6482274.150 22822035.138 9399196.437 10 0 60272 24300.00000 0 5960195.456 21588362.092 12232978.503 10 0 60272 25200.00000 0 5170031.327 20114453.886 14829439.300 10 0 60272 26100.00000 0 4096010.674 18458901.646 17138226.458 10 0 60272 27000.00000 0 2734615.125 16684298.724 19114566.821 10 0 60272 27900.00000 0 1094989.052 14854657.326 20720129.760 10 0 60272 28800.00000 0 -801182.777 13032785.951 21923766.080 10 0 60272 29700.00000 0 -2920326.001 11277736.695 22702108.866 10 0 60272 30600.00000 0 -5218130.139 9642428.309 23040025.173 10 0 60272 31500.00000 0 -7641158.141 8171543.456 22930910.187 10 0 60272 32400.00000 0 -10128846.549 6899787.169 22376818.308 10 0 60272 33300.00000 0 -12615814.596 5850578.422 21388428.463 10 0 60272 34200.00000 0 -15034387.578 5035228.912 19984843.882 10 0 60272 35100.00000 0 -17317230.750 4452642.858 18193229.551 10 0 60272 36000.00000 0 -19399985.043 4089550.024 16048293.489 10 0 60272 36900.00000 0 -21223795.385 3921261.968 13591620.974 10 0 60272 37800.00000 0 -22737626.462 3912919.540 10870873.774 10 0 60272 38700.00000 0 -23900269.185 4021178.910 7938869.121 10 0 60272 39600.00000 0 -24681953.651 4196264.822 4852555.896 10 0 60272 40500.00000 0 -25065500.668 4384303.908 1671907.694 10 0 60272 41400.00000 0 -25046963.095 4529838.881 -1541245.590 10 0 60272 42300.00000 0 -24635729.693 4578416.400 -4724424.442 10 0 60272 43200.00000 0 -23854086.895 4479138.072 -7815720.572 10 0 60272 44100.00000 0 -22736256.873 4187065.444 -10755007.361 10 0 60272 45000.00000 0 -21326952.529 3665375.969 -13485115.499 10 0 60272 45900.00000 0 -19679510.508 2887177.455 -15952950.206 10 0 60272 46800.00000 0 -17853681.145 1836903.085 -18110527.759 10 0 60272 47700.00000 0 -15913168.663 511226.934 -19915910.760 10 0 60272 48600.00000 0 -13923025.251 -1080539.705 -21334023.933 10 0 60272 49500.00000 0 -11947008.538 -2916588.907 -22337334.694 10 0 60272 50400.00000 0 -10045013.187 -4963288.626 -22906385.632 10 0 60272 51300.00000 0 -8270683.900 -7176359.811 -23030168.951 10 0 60272 52200.00000 0 -6669309.123 -9502509.645 -22706336.136 10 0 60272 53100.00000 0 -5276082.782 -11881453.335 -21941239.159 10 0 60272 54000.00000 0 -4114805.693 -14248240.669 -20749802.823 10 0 60272 54900.00000 0 -3197079.724 -16535790.839 -19155230.929 10 0 60272 55800.00000 0 -2522027.112 -18677530.285 -17188552.105 10 0 60272 56700.00000 0 -2076545.255 -20610023.954 -14888014.149 10 0 60272 57600.00000 0 -1836084.860 -22275490.625 -12298338.584 10 0 60272 58500.00000 0 -1765917.386 -23624097.600 -9469849.903 10 0 60272 59400.00000 0 -1822837.164 -24615939.315 -6457496.387 10 0 60272 60300.00000 0 -1957225.383 -25222617.521 -3319781.583 10 0 60272 61200.00000 0 -2115387.853 -25428357.341 -117627.347 10 0 60272 62100.00000 0 -2242067.083 -25230612.986 3086809.272 10 0 60272 63000.00000 0 -2283021.868 -24640138.244 6231342.143 10 0 60272 63900.00000 0 -2187564.887 -23680519.341 9254961.501 10 0 60272 64800.00000 0 -1910950.661 -22387190.242 12099015.275 10 0 60272 65700.00000 0 -1416512.709 -20805972.046 14708343.439 10 0 60272 66600.00000 0 -677459.336 -18991197.905 17032343.532 10 0 60272 67500.00000 0 321748.066 -17003501.982 19025947.146 10 0 60272 68400.00000 0 1584492.778 -14907364.755 20650488.952 10 0 60272 69300.00000 0 3101615.278 -12768516.780 21874452.070 10 0 60272 70200.00000 0 4851557.800 -10651308.698 22674075.972 10 0 60272 71100.00000 0 6801036.095 -8616156.332 23033815.715 10 0 60272 72000.00000 0 8906211.754 -6717166.536 22946643.984 10 0 60272 72900.00000 0 11114317.698 -5000041.757 22414190.258 10 0 60272 73800.00000 0 13365670.614 -3500349.725 21446714.259 10 0 60272 74700.00000 0 15595987.944 -2242229.631 20062913.780 10 0 60272 75600.00000 0 17738914.178 -1237588.042 18289569.949 10 0 60272 76500.00000 0 19728652.180 -485817.587 16161035.920 10 0 60272 77400.00000 0 21502590.474 25950.300 13718578.023 10 0 60272 78300.00000 0 23003817.102 322069.569 11009581.211 10 0 60272 79200.00000 0 24183414.997 437113.674 8086633.510 10 0 60272 80100.00000 0 25002442.420 414173.310 5006506.741 10 0 60272 81000.00000 0 25433514.952 302790.083 1829053.142 10 0 60272 81900.00000 0 25461922.034 156614.020 -1383960.572 10 0 60272 82800.00000 0 25086230.483 30884.779 -4570058.562 10 0 60272 83700.00000 0 24318349.091 -20155.880 -7667276.543 10 0 60272 84600.00000 0 23183051.188 54190.247 -10615373.275 10 0 60272 85500.00000 0 21716975.075 298682.989 -13357008.404 99